Weather in Kostkovo

Russia / Novgorod Oblast     58°07′15″N   33°02′31″E
temp.,
°C
wind,
m/s
gust,
m/s
humid.,
%
clouds,
%
prec.,
mm/h
press.,
hPa
HPBL,
m
29 july, thu
thu2900:00+15s2397100 0.0 100872
03:00+15ssw24987 0.0 100786
06:00+16sw259829 0.5 1006158
09:00+20wsw2485100 0.5 1006353
12:00+23w3670100 1.4 1006886
15:00+26wsw474611 1.4 10041933
18:00+22wsw496560 0.2 1004507
21:00+18sw28956 2.0 1004172
30 july, fri
fri3000:00+16sw27989 0.0 1003173
03:00+15sw249813 0.0 100495
06:00+15sw259933 0.0 1004152
09:00+18w249195 0.0 1004252
12:00+23wsw57536 0.1 10031381
15:00+23wsw474792 0.1 10031404
18:00+22wsw375310 0.2 10021600
21:00+18s2971100 0.2 1001273
31 july, sat
sat3100:00+16ssw4117686 0.1 1000364
03:00+15ssw4126598 0.1 1000409
06:00+13ssw41494100 1.4 9991011
09:00+15sw51286100 1.7 9991084
12:00+20wsw6115837 0.1 10001729
15:00+20wsw5107449 1.6 10011444
18:00+19wsw510832 1.4 10021136
21:00+17sw310894 1.8 1003273
1 august, sun
sun100:00+15ssw3997100 0.0 1005199
03:00+14ssw2697100 0.0 1005120
06:00+15s2794100 0.0 1005204
09:00+17sse3888100 0.0 1004308
12:00+20sw4866100 0.0 1004853
15:00+22sw597279 1.1 10031201
18:00+23ssw395814 0.4 10021391
21:00+17wsw247815 0.4 100470
2 august, mon
mon200:00+15ssw238545 0.0 100554
03:00+14ssw279282 0.0 1005146
06:00+15sw388882 0.0 1005266
09:00+19wsw4760100 0.0 1005949
12:00+16ssw2691100 0.6 1006406
15:00+15sse1297100 3.9 1005158
18:00+14nnw2599100 14.3 1003307
21:00+14n2798100 16.1 1003279